����������;��������(kVARh)
2017-10-02 00:00;2,6
2017-10-02 00:15;2,55
2017-10-02 00:30;3,2
2017-10-02 00:45;3,75
2017-10-02 01:00;2,35
2017-10-02 01:15;2,15
2017-10-02 01:30;1,55
2017-10-02 01:45;1,7
2017-10-02 02:00;1,7
2017-10-02 02:15;2,1
2017-10-02 02:30;1,85
2017-10-02 02:45;0,9
2017-10-02 03:00;1,9
2017-10-02 03:15;0,65
2017-10-02 03:30;2,2
2017-10-02 03:45;1,9
2017-10-02 04:00;1,8
2017-10-02 04:15;1,9
2017-10-02 04:30;1,4
2017-10-02 04:45;1,75
2017-10-02 05:00;1,6
2017-10-02 05:15;1,85
2017-10-02 05:30;2,65
2017-10-02 05:45;0,85
2017-10-02 06:00;0,8
2017-10-02 06:15;0,8
2017-10-02 06:30;1,7
2017-10-02 06:45;0,8
2017-10-02 07:00;0,75
2017-10-02 07:15;3,3
2017-10-02 07:30;22,75
2017-10-02 07:45;10,45
2017-10-02 08:00;7,45
2017-10-02 08:15;7,35
2017-10-02 08:30;13,35
2017-10-02 08:45;30,05
2017-10-02 09:00;44,45
2017-10-02 09:15;38,45
2017-10-02 09:30;37,05
2017-10-02 09:45;36,8
2017-10-02 10:00;37,5
2017-10-02 10:15;38,05
2017-10-02 10:30;36,55
2017-10-02 10:45;36,95
2017-10-02 11:00;41,35
2017-10-02 11:15;42,1
2017-10-02 11:30;42,5
2017-10-02 11:45;45,2
2017-10-02 12:00;44,4
2017-10-02 12:15;40,7
2017-10-02 12:30;39,2
2017-10-02 12:45;41,7
2017-10-02 13:00;45,95
2017-10-02 13:15;47,85
2017-10-02 13:30;46,35
2017-10-02 13:45;44,45
2017-10-02 14:00;47,5
2017-10-02 14:15;48,45
2017-10-02 14:30;47,8
2017-10-02 14:45;48,05
2017-10-02 15:00;50,1
2017-10-02 15:15;46,05
2017-10-02 15:30;43,25
2017-10-02 15:45;45,1
2017-10-02 16:00;43,55
2017-10-02 16:15;43,35
2017-10-02 16:30;41,15
2017-10-02 16:45;39,75
2017-10-02 17:00;39,7
2017-10-02 17:15;38,1
2017-10-02 17:30;35,7
2017-10-02 17:45;33,65
2017-10-02 18:00;32,15
2017-10-02 18:15;32,5
2017-10-02 18:30;32,2
2017-10-02 18:45;28,4
2017-10-02 19:00;26,05
2017-10-02 19:15;22,65
2017-10-02 19:30;14,9
2017-10-02 19:45;13,65
2017-10-02 20:00;14,85
2017-10-02 20:15;11,45
2017-10-02 20:30;11,45
2017-10-02 20:45;13,2
2017-10-02 21:00;14,05
2017-10-02 21:15;14,8
2017-10-02 21:30;14,95
2017-10-02 21:45;15
2017-10-02 22:00;19,4
2017-10-02 22:15;19,6
2017-10-02 22:30;18,1
2017-10-02 22:45;17,25
2017-10-02 23:00;18,2
2017-10-02 23:15;15,15
2017-10-02 23:30;10
2017-10-02 23:45;8,2
2017-10-03 00:00;8,8
2017-10-03 00:15;8,25
2017-10-03 00:30;7,45
2017-10-03 00:45;6,05
2017-10-03 01:00;6,85
2017-10-03 01:15;6,35
2017-10-03 01:30;4,9
2017-10-03 01:45;3,9
2017-10-03 02:00;1,15
2017-10-03 02:15;2,85
2017-10-03 02:30;3,35
2017-10-03 02:45;2,1
2017-10-03 03:00;2,05
2017-10-03 03:15;1,5
2017-10-03 03:30;2,3
2017-10-03 03:45;1,2
2017-10-03 04:00;3,2
2017-10-03 04:15;4,7
2017-10-03 04:30;3,05
2017-10-03 04:45;3,4
2017-10-03 05:00;3,7
2017-10-03 05:15;3,75
2017-10-03 05:30;3,9
2017-10-03 05:45;3,35
2017-10-03 06:00;3,2
2017-10-03 06:15;3,45
2017-10-03 06:30;2,65
2017-10-03 06:45;2,15
2017-10-03 07:00;2,65
2017-10-03 07:15;6,7
2017-10-03 07:30;8,65
2017-10-03 07:45;9,65
2017-10-03 08:00;19
2017-10-03 08:15;17,85
2017-10-03 08:30;17,5
2017-10-03 08:45;21,1
2017-10-03 09:00;21,2
2017-10-03 09:15;27,35
2017-10-03 09:30;32,7
2017-10-03 09:45;34,5
2017-10-03 10:00;36,2
2017-10-03 10:15;41,8
2017-10-03 10:30;43,7
2017-10-03 10:45;43,7
2017-10-03 11:00;45,1
2017-10-03 11:15;43,15
2017-10-03 11:30;39,35
2017-10-03 11:45;39,55
2017-10-03 12:00;39,85
2017-10-03 12:15;43,35
2017-10-03 12:30;46,4
2017-10-03 12:45;44,5
2017-10-03 13:00;46,05
2017-10-03 13:15;46,35
2017-10-03 13:30;46,1
2017-10-03 13:45;48,6
2017-10-03 14:00;45,25
2017-10-03 14:15;46,4
2017-10-03 14:30;46
2017-10-03 14:45;48,75
2017-10-03 15:00;46,75
2017-10-03 15:15;42,4
2017-10-03 15:30;43,5
2017-10-03 15:45;40,1
2017-10-03 16:00;43,7
2017-10-03 16:15;45,6
2017-10-03 16:30;44,4
2017-10-03 16:45;40
2017-10-03 17:00;36,25
2017-10-03 17:15;36,9
2017-10-03 17:30;38,35
2017-10-03 17:45;34,55
2017-10-03 18:00;32,8
2017-10-03 18:15;33,15
2017-10-03 18:30;29,6
2017-10-03 18:45;24,85
2017-10-03 19:00;27,45
2017-10-03 19:15;28,55
2017-10-03 19:30;21,45
2017-10-03 19:45;18,9
2017-10-03 20:00;19,05
2017-10-03 20:15;21,35
2017-10-03 20:30;19,05
2017-10-03 20:45;17,8
2017-10-03 21:00;19,1
2017-10-03 21:15;19
2017-10-03 21:30;21,6
2017-10-03 21:45;19,7
2017-10-03 22:00;19,55
2017-10-03 22:15;23,15
2017-10-03 22:30;14,25
2017-10-03 22:45;8,55
2017-10-03 23:00;11,25
2017-10-03 23:15;10
2017-10-03 23:30;9,85
2017-10-03 23:45;2,2
2017-10-04 00:00;2,2
2017-10-04 00:15;5,85
2017-10-04 00:30;1,45
2017-10-04 00:45;0,6
2017-10-04 01:00;0,1
2017-10-04 01:15;0,65
2017-10-04 01:30;0,4
2017-10-04 01:45;1,25
2017-10-04 02:00;0,75
2017-10-04 02:15;0,4
2017-10-04 02:30;0,3
2017-10-04 02:45;0,5
2017-10-04 03:00;0,15
2017-10-04 03:15;0,15
2017-10-04 03:30;0,45
2017-10-04 03:45;0,75
2017-10-04 04:00;1,8
2017-10-04 04:15;5,55
2017-10-04 04:30;5,65
2017-10-04 04:45;5,75
2017-10-04 05:00;5,95
2017-10-04 05:15;7
2017-10-04 05:30;6,1
2017-10-04 05:45;5,65
2017-10-04 06:00;8,8
2017-10-04 06:15;13,65
2017-10-04 06:30;13,4
2017-10-04 06:45;13,85
2017-10-04 07:00;15,1
2017-10-04 07:15;15,45
2017-10-04 07:30;14,6
2017-10-04 07:45;17,85
2017-10-04 08:00;20,2
2017-10-04 08:15;24,55
2017-10-04 08:30;32,25
2017-10-04 08:45;35,35
2017-10-04 09:00;38,35
2017-10-04 09:15;37,95
2017-10-04 09:30;38,75
2017-10-04 09:45;39,35
2017-10-04 10:00;41,7
2017-10-04 10:15;41,55
2017-10-04 10:30;37,2
2017-10-04 10:45;37,5
2017-10-04 11:00;35,75
2017-10-04 11:15;38,2
2017-10-04 11:30;40,95
2017-10-04 11:45;44,75
2017-10-04 12:00;45,6
2017-10-04 12:15;41,75
2017-10-04 12:30;42
2017-10-04 12:45;45,05
2017-10-04 13:00;42,95
2017-10-04 13:15;48,9
2017-10-04 13:30;74,85
2017-10-04 13:45;71,95
2017-10-04 14:00;51,75
2017-10-04 14:15;49,65
2017-10-04 14:30;57,25
2017-10-04 14:45;56,9
2017-10-04 15:00;45,45
2017-10-04 15:15;47,55
2017-10-04 15:30;47,7
2017-10-04 15:45;42,7
2017-10-04 16:00;45,25
2017-10-04 16:15;52,1
2017-10-04 16:30;55,7
2017-10-04 16:45;37
2017-10-04 17:00;41,4
2017-10-04 17:15;37,45
2017-10-04 17:30;35,6
2017-10-04 17:45;33,95
2017-10-04 18:00;33,2
2017-10-04 18:15;33,85
2017-10-04 18:30;28,6
2017-10-04 18:45;26,7
2017-10-04 19:00;23,5
2017-10-04 19:15;21,4
2017-10-04 19:30;18,1
2017-10-04 19:45;15,9
2017-10-04 20:00;13,55
2017-10-04 20:15;16,7
2017-10-04 20:30;17,3
2017-10-04 20:45;18,55
2017-10-04 21:00;18
2017-10-04 21:15;19,45
2017-10-04 21:30;19,8
2017-10-04 21:45;20,05
2017-10-04 22:00;16,9
2017-10-04 22:15;22,2
2017-10-04 22:30;21,9
2017-10-04 22:45;23
2017-10-04 23:00;22,25
2017-10-04 23:15;15,5
2017-10-04 23:30;16,55
2017-10-04 23:45;15,35
2017-10-05 00:00;11,1
2017-10-05 00:15;11,55
2017-10-05 00:30;8,8
2017-10-05 00:45;8,35
2017-10-05 01:00;11,75
2017-10-05 01:15;10,4
2017-10-05 01:30;10,6
2017-10-05 01:45;12
2017-10-05 02:00;11,85
2017-10-05 02:15;10,85
2017-10-05 02:30;12,5
2017-10-05 02:45;10,65
2017-10-05 03:00;13,25
2017-10-05 03:15;11,5
2017-10-05 03:30;12,4
2017-10-05 03:45;11,9
2017-10-05 04:00;12,05
2017-10-05 04:15;12,6
2017-10-05 04:30;11,35
2017-10-05 04:45;11,65
2017-10-05 05:00;10,7
2017-10-05 05:15;11,8
2017-10-05 05:30;12,45
2017-10-05 05:45;9,65
2017-10-05 06:00;10,25
2017-10-05 06:15;8,1
2017-10-05 06:30;8,4
2017-10-05 06:45;12,2
2017-10-05 07:00;23,1
2017-10-05 07:15;23,45
2017-10-05 07:30;21,05
2017-10-05 07:45;23,45
2017-10-05 08:00;28,05
2017-10-05 08:15;26,45
2017-10-05 08:30;26,3
2017-10-05 08:45;28,75
2017-10-05 09:00;32,7
2017-10-05 09:15;34,9
2017-10-05 09:30;41,95
2017-10-05 09:45;45,05
2017-10-05 10:00;44,8
2017-10-05 10:15;45,15
2017-10-05 10:30;45,5
2017-10-05 10:45;40,35
2017-10-05 11:00;40,6
2017-10-05 11:15;43,25
2017-10-05 11:30;43,6
2017-10-05 11:45;45,75
2017-10-05 12:00;48,3
2017-10-05 12:15;47,5
2017-10-05 12:30;43,45
2017-10-05 12:45;43,8
2017-10-05 13:00;44,5
2017-10-05 13:15;49,85
2017-10-05 13:30;50,5
2017-10-05 13:45;48,25
2017-10-05 14:00;48,45
2017-10-05 14:15;50,2
2017-10-05 14:30;51,75
2017-10-05 14:45;50,15
2017-10-05 15:00;48
2017-10-05 15:15;47,5
2017-10-05 15:30;52,75
2017-10-05 15:45;48,8
2017-10-05 16:00;48,85
2017-10-05 16:15;46,75
2017-10-05 16:30;43,65
2017-10-05 16:45;42,5
2017-10-05 17:00;40,7
2017-10-05 17:15;39,9
2017-10-05 17:30;40,7
2017-10-05 17:45;35,8
2017-10-05 18:00;33,65
2017-10-05 18:15;29,85
2017-10-05 18:30;29,4
2017-10-05 18:45;30
2017-10-05 19:00;29,65
2017-10-05 19:15;31,4
2017-10-05 19:30;23,95
2017-10-05 19:45;21,85
2017-10-05 20:00;21,7
2017-10-05 20:15;20,1
2017-10-05 20:30;20,1
2017-10-05 20:45;20,5
2017-10-05 21:00;21,75
2017-10-05 21:15;21,6
2017-10-05 21:30;21,15
2017-10-05 21:45;21,15
2017-10-05 22:00;17,6
2017-10-05 22:15;20,3
2017-10-05 22:30;23,3
2017-10-05 22:45;20,2
2017-10-05 23:00;17,45
2017-10-05 23:15;15
2017-10-05 23:30;12,75
2017-10-05 23:45;11,2
2017-10-06 00:00;9,45
2017-10-06 00:15;14,95
2017-10-06 00:30;11,35
2017-10-06 00:45;5,1
2017-10-06 01:00;1,85
2017-10-06 01:15;3,9
2017-10-06 01:30;5,3
2017-10-06 01:45;3,5
2017-10-06 02:00;4,45
2017-10-06 02:15;3,5
2017-10-06 02:30;5,3
2017-10-06 02:45;4,65
2017-10-06 03:00;6,95
2017-10-06 03:15;4,85
2017-10-06 03:30;5,25
2017-10-06 03:45;5,7
2017-10-06 04:00;5,75
2017-10-06 04:15;6,4
2017-10-06 04:30;4,85
2017-10-06 04:45;5,1
2017-10-06 05:00;3,95
2017-10-06 05:15;5,6
2017-10-06 05:30;6,1
2017-10-06 05:45;4,35
2017-10-06 06:00;3,75
2017-10-06 06:15;3,5
2017-10-06 06:30;3,1
2017-10-06 06:45;3,1
2017-10-06 07:00;4,65
2017-10-06 07:15;15
2017-10-06 07:30;17,8
2017-10-06 07:45;19,35
2017-10-06 08:00;19,7
2017-10-06 08:15;16,95
2017-10-06 08:30;19,25
2017-10-06 08:45;20,1
2017-10-06 09:00;20,45
2017-10-06 09:15;22,85
2017-10-06 09:30;32,8
2017-10-06 09:45;38,15
2017-10-06 10:00;39,45
2017-10-06 10:15;38,4
2017-10-06 10:30;39,85
2017-10-06 10:45;41,15
2017-10-06 11:00;45,85
2017-10-06 11:15;47,4
2017-10-06 11:30;45,75
2017-10-06 11:45;42,3
2017-10-06 12:00;43,2
2017-10-06 12:15;43,9
2017-10-06 12:30;46,2
2017-10-06 12:45;49,1
2017-10-06 13:00;48,5
2017-10-06 13:15;48,55
2017-10-06 13:30;44,7
2017-10-06 13:45;43,95
2017-10-06 14:00;42,6
2017-10-06 14:15;40,65
2017-10-06 14:30;45,7
2017-10-06 14:45;44,3
2017-10-06 15:00;43,3
2017-10-06 15:15;40,1
2017-10-06 15:30;42,4
2017-10-06 15:45;41,85
2017-10-06 16:00;42,2
2017-10-06 16:15;38,85
2017-10-06 16:30;38,8
2017-10-06 16:45;39,25
2017-10-06 17:00;35,4
2017-10-06 17:15;36,4
2017-10-06 17:30;34,75
2017-10-06 17:45;32,45
2017-10-06 18:00;31,9
2017-10-06 18:15;30,95
2017-10-06 18:30;31
2017-10-06 18:45;26,9
2017-10-06 19:00;26,9
2017-10-06 19:15;22,45
2017-10-06 19:30;18,3
2017-10-06 19:45;19,95
2017-10-06 20:00;18
2017-10-06 20:15;16,7
2017-10-06 20:30;18,45
2017-10-06 20:45;21,3
2017-10-06 21:00;24,7
2017-10-06 21:15;25,9
2017-10-06 21:30;28,15
2017-10-06 21:45;23,65
2017-10-06 22:00;20,5
2017-10-06 22:15;23,6
2017-10-06 22:30;23,75
2017-10-06 22:45;20,05
2017-10-06 23:00;18,95
2017-10-06 23:15;18,15
2017-10-06 23:30;21,25
2017-10-06 23:45;20
2017-10-07 00:00;15,2
2017-10-07 00:15;9,25
2017-10-07 00:30;10,7
2017-10-07 00:45;12,55
2017-10-07 01:00;7,85
2017-10-07 01:15;8,05
2017-10-07 01:30;9,75
2017-10-07 01:45;9,7
2017-10-07 02:00;8,6
2017-10-07 02:15;11
2017-10-07 02:30;10,1
2017-10-07 02:45;9,5
2017-10-07 03:00;9,1
2017-10-07 03:15;9,7
2017-10-07 03:30;11,15
2017-10-07 03:45;9,25
2017-10-07 04:00;10,4
2017-10-07 04:15;8,15
2017-10-07 04:30;9,75
2017-10-07 04:45;11,45
2017-10-07 05:00;8,9
2017-10-07 05:15;8,8
2017-10-07 05:30;8,4
2017-10-07 05:45;9,05
2017-10-07 06:00;7,45
2017-10-07 06:15;6,6
2017-10-07 06:30;8
2017-10-07 06:45;6,85
2017-10-07 07:00;6,9
2017-10-07 07:15;5,55
2017-10-07 07:30;7,1
2017-10-07 07:45;10,2
2017-10-07 08:00;9,6
2017-10-07 08:15;7,5
2017-10-07 08:30;6,15
2017-10-07 08:45;12,35
2017-10-07 09:00;13,75
2017-10-07 09:15;14,05
2017-10-07 09:30;17,2
2017-10-07 09:45;16,45
2017-10-07 10:00;16,55
2017-10-07 10:15;14,25
2017-10-07 10:30;13,45
2017-10-07 10:45;15,15
2017-10-07 11:00;14,15
2017-10-07 11:15;15,55
2017-10-07 11:30;15,2
2017-10-07 11:45;16,4
2017-10-07 12:00;14,45
2017-10-07 12:15;14,3
2017-10-07 12:30;15,75
2017-10-07 12:45;14,8
2017-10-07 13:00;14,55
2017-10-07 13:15;10,4
2017-10-07 13:30;14,5
2017-10-07 13:45;12,45
2017-10-07 14:00;12,8
2017-10-07 14:15;13
2017-10-07 14:30;12,6
2017-10-07 14:45;15
2017-10-07 15:00;15,65
2017-10-07 15:15;18,05
2017-10-07 15:30;16,3
2017-10-07 15:45;17,7
2017-10-07 16:00;18,85
2017-10-07 16:15;17,7
2017-10-07 16:30;19,65
2017-10-07 16:45;20,6
2017-10-07 17:00;21
2017-10-07 17:15;20,4
2017-10-07 17:30;21,15
2017-10-07 17:45;23,95
2017-10-07 18:00;23,05
2017-10-07 18:15;21,05
2017-10-07 18:30;20,8
2017-10-07 18:45;22,25
2017-10-07 19:00;20,5
2017-10-07 19:15;22,55
2017-10-07 19:30;20,5
2017-10-07 19:45;21,1
2017-10-07 20:00;20,15
2017-10-07 20:15;19,5
2017-10-07 20:30;21,5
2017-10-07 20:45;18,4
2017-10-07 21:00;18,25
2017-10-07 21:15;18,45
2017-10-07 21:30;20,05
2017-10-07 21:45;19,8
2017-10-07 22:00;17,95
2017-10-07 22:15;20,15
2017-10-07 22:30;20,5
2017-10-07 22:45;24
2017-10-07 23:00;17,95
2017-10-07 23:15;9,65
2017-10-07 23:30;11,15
2017-10-07 23:45;7,5
2017-10-08 00:00;8,55
2017-10-08 00:15;11,3
2017-10-08 00:30;9,9
2017-10-08 00:45;12,55
2017-10-08 01:00;11,5
2017-10-08 01:15;12,7
2017-10-08 01:30;7,65
2017-10-08 01:45;8,9
2017-10-08 02:00;8,65
2017-10-08 02:15;9,45
2017-10-08 02:30;9,75
2017-10-08 02:45;10,45
2017-10-08 03:00;9,7
2017-10-08 03:15;10,85
2017-10-08 03:30;10,2
2017-10-08 03:45;12,1
2017-10-08 04:00;10,95
2017-10-08 04:15;10,5
2017-10-08 04:30;9,75
2017-10-08 04:45;11,9
2017-10-08 05:00;11,95
2017-10-08 05:15;11
2017-10-08 05:30;12,8
2017-10-08 05:45;10,55
2017-10-08 06:00;11,7
2017-10-08 06:15;10,95
2017-10-08 06:30;12,3
2017-10-08 06:45;11,25
2017-10-08 07:00;12,75
2017-10-08 07:15;12,15
2017-10-08 07:30;14,35
2017-10-08 07:45;11,75
2017-10-08 08:00;12,35
2017-10-08 08:15;9,3
2017-10-08 08:30;11,4
2017-10-08 08:45;9,4
2017-10-08 09:00;7,1
2017-10-08 09:15;8,15
2017-10-08 09:30;14,3
2017-10-08 09:45;15,05
2017-10-08 10:00;14,95
2017-10-08 10:15;22,2
2017-10-08 10:30;23,15
2017-10-08 10:45;22,85
2017-10-08 11:00;20,75
2017-10-08 11:15;19,75
2017-10-08 11:30;19,45
2017-10-08 11:45;24,9
2017-10-08 12:00;26,45
2017-10-08 12:15;25,3
2017-10-08 12:30;23,4
2017-10-08 12:45;22,85
2017-10-08 13:00;24,5
2017-10-08 13:15;23,85
2017-10-08 13:30;26,15
2017-10-08 13:45;25,3
2017-10-08 14:00;27,9
2017-10-08 14:15;25,6
2017-10-08 14:30;25,7
2017-10-08 14:45;26,1
2017-10-08 15:00;26,8
2017-10-08 15:15;27,65
2017-10-08 15:30;29,95
2017-10-08 15:45;29,75
2017-10-08 16:00;29,55
2017-10-08 16:15;27,75
2017-10-08 16:30;29,05
2017-10-08 16:45;26,9
2017-10-08 17:00;28,7
2017-10-08 17:15;26,5
2017-10-08 17:30;28,65
2017-10-08 17:45;27,65
2017-10-08 18:00;29,75
2017-10-08 18:15;28,45
2017-10-08 18:30;30
2017-10-08 18:45;31,35
2017-10-08 19:00;29,4
2017-10-08 19:15;19,85
2017-10-08 19:30;18,85
2017-10-08 19:45;18,85
2017-10-08 20:00;18,7
2017-10-08 20:15;17
2017-10-08 20:30;18,3
2017-10-08 20:45;17
2017-10-08 21:00;18,5
2017-10-08 21:15;17,2
2017-10-08 21:30;16,7
2017-10-08 21:45;15,7
2017-10-08 22:00;13,6
2017-10-08 22:15;15,1
2017-10-08 22:30;15,8
2017-10-08 22:45;18,8
2017-10-08 23:00;15,3
2017-10-08 23:15;13,35
2017-10-08 23:30;5,7
2017-10-08 23:45;5,65

